RYR4KB EDDK-EDDB

Flight info

Callsign RYR4KB
Flight time 1h 3m
Altitude 31000
Route PODIP1R PODIP Y867 PELUN DCT ANZIV DCT WRB DCT NORTA DCT HLZ DCT BATEL T207 OGBER OGBER1R
Aircraft B738/M-SDE2E3FGHIRWXY/LB1

Departure

Time 2026-05-05 09:52
Airport Cologne Bonn Airport (EDDK)

Arrival

Time 2026-05-05 10:55
Airport Berlin Brandenburg Airport (EDDB)
Time Latitude Longitude Altitude Speed Heading
2026-05-05 09:31 50.88248 7.12199 233 ft 0 kts 36°
2026-05-05 09:32 50.88248 7.12200 233 ft 0 kts 42°
2026-05-05 09:44 50.88236 7.12186 231 ft 4 kts 33°
2026-05-05 09:44 50.88215 7.12161 233 ft 4 kts 49°
2026-05-05 09:44 50.88202 7.12126 231 ft 4 kts 82°
2026-05-05 09:44 50.88206 7.12090 233 ft 2 kts 126°
2026-05-05 09:45 50.88209 7.12083 232 ft 0 kts 126°
2026-05-05 09:47 50.88198 7.12107 231 ft 9 kts 126°
2026-05-05 09:47 50.88142 7.12231 231 ft 16 kts 126°
2026-05-05 09:47 50.88063 7.12404 231 ft 21 kts 123°
2026-05-05 09:48 50.88000 7.12581 233 ft 15 kts 118°
2026-05-05 09:48 50.87993 7.12734 238 ft 7 kts 73°
2026-05-05 09:48 50.87998 7.12758 235 ft 0 kts 73°
2026-05-05 09:50 50.87998 7.12759 235 ft 1 kts 73°
2026-05-05 09:50 50.88001 7.12774 236 ft 5 kts 74°
2026-05-05 09:50 50.88009 7.12872 238 ft 12 kts 90°
2026-05-05 09:50 50.87987 7.13001 238 ft 13 kts 137°
2026-05-05 09:51 50.87967 7.13026 238 ft 0 kts 140°
2026-05-05 09:51 50.87966 7.13026 238 ft 1 kts 140°
2026-05-05 09:51 50.87819 7.13240 238 ft 69 kts 137°
2026-05-05 09:52 50.87252 7.14066 244 ft 148 kts 136°
2026-05-05 09:52 50.86409 7.15315 757 ft 173 kts 136°
2026-05-05 09:52 50.85518 7.16599 1881 ft 173 kts 138°
2026-05-05 09:52 50.84570 7.17932 2564 ft 195 kts 140°
2026-05-05 09:53 50.83475 7.19442 2878 ft 219 kts 140°
2026-05-05 09:53 50.82314 7.21065 3436 ft 229 kts 135°
2026-05-05 09:53 50.81537 7.23299 4221 ft 233 kts 107°
2026-05-05 09:53 50.81207 7.25890 4827 ft 253 kts 100°
2026-05-05 09:54 50.80971 7.28710 5347 ft 269 kts 99°
2026-05-05 09:54 50.80741 7.31686 6194 ft 275 kts 99°
2026-05-05 09:54 50.80504 7.34696 7068 ft 277 kts 99°
2026-05-05 09:54 50.80258 7.37729 7946 ft 280 kts 99°
2026-05-05 09:55 50.80000 7.40811 8799 ft 284 kts 99°
2026-05-05 09:55 50.79736 7.43918 9677 ft 287 kts 99°
2026-05-05 09:55 50.79461 7.47091 10332 ft 298 kts 99°
2026-05-05 09:55 50.79165 7.50462 10524 ft 324 kts 99°
2026-05-05 09:56 50.78845 7.54130 10780 ft 345 kts 98°
2026-05-05 09:56 50.78962 7.57980 11364 ft 358 kts 76°
2026-05-05 09:56 50.80029 7.61555 12187 ft 365 kts 55°
2026-05-05 09:56 50.81780 7.64472 12999 ft 369 kts 42°
2026-05-05 09:57 50.83720 7.67176 13802 ft 376 kts 41°
2026-05-05 09:57 50.85722 7.69913 14476 ft 382 kts 40°
2026-05-05 09:57 50.87739 7.72660 15219 ft 384 kts 41°
2026-05-05 09:57 50.89755 7.75461 15937 ft 386 kts 41°
2026-05-05 09:58 50.91752 7.78278 16579 ft 391 kts 42°
2026-05-05 09:58 50.93779 7.81168 17232 ft 394 kts 44°
2026-05-05 09:58 50.95470 7.84603 17863 ft 397 kts 60°
2026-05-05 09:58 50.96840 7.88411 18504 ft 399 kts 62°
2026-05-05 09:59 50.98208 7.92272 19062 ft 403 kts 62°
2026-05-05 09:59 50.99595 7.96158 19621 ft 407 kts 61°
2026-05-05 09:59 51.01008 8.00070 20177 ft 410 kts 61°
2026-05-05 09:59 51.02446 8.04017 20749 ft 413 kts 61°
2026-05-05 10:00 51.03899 8.07989 21222 ft 419 kts 61°
2026-05-05 10:00 51.05372 8.12012 21687 ft 424 kts 60°
2026-05-05 10:00 51.06852 8.16058 22358 ft 423 kts 60°
2026-05-05 10:00 51.08332 8.20111 22917 ft 425 kts 61°
2026-05-05 10:01 51.09823 8.24205 23387 ft 430 kts 61°
2026-05-05 10:01 51.11324 8.28345 23791 ft 434 kts 61°
2026-05-05 10:01 51.12837 8.32526 24187 ft 437 kts 61°
2026-05-05 10:01 51.14358 8.36740 24580 ft 440 kts 61°
2026-05-05 10:02 51.15869 8.40931 24949 ft 444 kts 61°
2026-05-05 10:02 51.17430 8.45264 25339 ft 447 kts 61°
2026-05-05 10:02 51.18985 8.49589 25718 ft 450 kts 61°
2026-05-05 10:02 51.20602 8.53806 26062 ft 454 kts 55°
2026-05-05 10:03 51.22578 8.57773 26417 ft 458 kts 50°
2026-05-05 10:03 51.24663 8.61630 26729 ft 462 kts 49°
2026-05-05 10:03 51.26795 8.65535 27074 ft 467 kts 49°
2026-05-05 10:03 51.28924 8.69480 27494 ft 469 kts 49°
2026-05-05 10:04 51.31040 8.73464 27862 ft 472 kts 50°
2026-05-05 10:04 51.33156 8.77496 28172 ft 475 kts 50°
2026-05-05 10:04 51.35285 8.81573 28483 ft 478 kts 50°
2026-05-05 10:04 51.37422 8.85669 28806 ft 481 kts 50°
2026-05-05 10:05 51.39570 8.89793 29214 ft 481 kts 50°
2026-05-05 10:05 51.41706 8.93904 29699 ft 480 kts 50°
2026-05-05 10:05 51.43814 8.97970 30122 ft 479 kts 50°
2026-05-05 10:05 51.45946 9.02087 30470 ft 479 kts 50°
2026-05-05 10:06 51.48072 9.06197 30857 ft 479 kts 50°
2026-05-05 10:06 51.50237 9.10389 30854 ft 484 kts 50°
2026-05-05 10:06 51.54473 9.18528 30860 ft 478 kts 49°
2026-05-05 10:07 51.58755 9.26693 30878 ft 476 kts 49°
2026-05-05 10:07 51.63019 9.34858 30886 ft 478 kts 49°
2026-05-05 10:08 51.67289 9.43077 30906 ft 479 kts 49°
2026-05-05 10:08 51.71574 9.51357 30890 ft 482 kts 49°
2026-05-05 10:09 51.75866 9.59677 30888 ft 482 kts 49°
2026-05-05 10:09 51.80156 9.68022 30874 ft 482 kts 49°
2026-05-05 10:10 51.84430 9.76359 30877 ft 481 kts 49°
2026-05-05 10:10 51.88692 9.84694 30899 ft 480 kts 48°
2026-05-05 10:11 51.92936 9.93001 30886 ft 480 kts 48°
2026-05-05 10:11 51.97192 10.01356 30888 ft 481 kts 48°
2026-05-05 10:12 52.01438 10.09724 30888 ft 480 kts 49°
2026-05-05 10:12 52.05686 10.18122 30889 ft 481 kts 49°
2026-05-05 10:13 52.09926 10.26537 30904 ft 481 kts 48°
2026-05-05 10:13 52.14167 10.34977 30852 ft 481 kts 48°
2026-05-05 10:14 52.16275 10.39184 30439 ft 477 kts 48°
2026-05-05 10:14 52.18355 10.43343 30049 ft 470 kts 49°
2026-05-05 10:14 52.20411 10.47462 29558 ft 466 kts 49°
2026-05-05 10:14 52.22446 10.51543 29104 ft 461 kts 49°
2026-05-05 10:15 52.24456 10.55581 28634 ft 457 kts 49°
2026-05-05 10:15 52.26456 10.59602 28179 ft 453 kts 49°
2026-05-05 10:15 52.28431 10.63581 27738 ft 449 kts 49°
2026-05-05 10:15 52.30388 10.67531 27286 ft 446 kts 49°
2026-05-05 10:16 52.32331 10.71456 26839 ft 443 kts 49°
2026-05-05 10:16 52.34263 10.75364 26394 ft 440 kts 49°
2026-05-05 10:16 52.36178 10.79238 25941 ft 437 kts 48°
2026-05-05 10:16 52.38172 10.82860 25675 ft 430 kts 43°
2026-05-05 10:17 52.40274 10.86313 25296 ft 426 kts 42°
2026-05-05 10:17 52.42390 10.89691 24882 ft 423 kts 42°
2026-05-05 10:17 52.44486 10.93062 24469 ft 420 kts 42°
2026-05-05 10:17 52.46547 10.96431 24050 ft 418 kts 43°
2026-05-05 10:18 52.48589 10.99812 23634 ft 415 kts 43°
2026-05-05 10:18 52.50614 11.03181 23162 ft 413 kts 44°
2026-05-05 10:18 52.52356 11.06918 22653 ft 413 kts 64°
2026-05-05 10:18 52.53209 11.11369 22270 ft 406 kts 84°
2026-05-05 10:19 52.53249 11.15922 21995 ft 395 kts 101°
2026-05-05 10:19 52.52553 11.20225 21618 ft 386 kts 112°
2026-05-05 10:19 52.51642 11.24356 21190 ft 383 kts 114°
2026-05-05 10:19 52.50714 11.28384 20779 ft 381 kts 114°
2026-05-05 10:20 52.49773 11.32441 20378 ft 379 kts 114°
2026-05-05 10:20 52.48844 11.36470 19969 ft 377 kts 114°
2026-05-05 10:20 52.47923 11.40497 19569 ft 375 kts 114°
2026-05-05 10:20 52.47014 11.44497 19168 ft 373 kts 114°
2026-05-05 10:21 52.46112 11.48483 18771 ft 371 kts 113°
2026-05-05 10:21 52.45218 11.52441 18367 ft 369 kts 114°
2026-05-05 10:21 52.44327 11.56382 17945 ft 367 kts 114°
2026-05-05 10:21 52.43441 11.60299 17496 ft 366 kts 114°
2026-05-05 10:22 52.42561 11.64185 17071 ft 363 kts 114°
2026-05-05 10:22 52.41685 11.68048 16682 ft 360 kts 114°
2026-05-05 10:22 52.40812 11.71887 16274 ft 358 kts 114°
2026-05-05 10:22 52.39945 11.75695 15892 ft 356 kts 113°
2026-05-05 10:23 52.39083 11.79473 15509 ft 354 kts 113°
2026-05-05 10:23 52.38224 11.83232 15120 ft 352 kts 113°
2026-05-05 10:23 52.37368 11.86971 14741 ft 350 kts 113°
2026-05-05 10:23 52.36514 11.90693 14358 ft 348 kts 113°
2026-05-05 10:24 52.35664 11.94389 13992 ft 347 kts 113°
2026-05-05 10:24 52.34814 11.98082 13568 ft 346 kts 113°
2026-05-05 10:24 52.33968 12.01753 13157 ft 345 kts 113°
2026-05-05 10:24 52.33124 12.05409 12754 ft 342 kts 113°
2026-05-05 10:25 52.32286 12.09033 12371 ft 340 kts 113°
2026-05-05 10:25 52.31462 12.12590 12002 ft 337 kts 113°
2026-05-05 10:25 52.30633 12.16160 11628 ft 335 kts 113°
2026-05-05 10:25 52.29810 12.19701 11256 ft 333 kts 113°
2026-05-05 10:26 52.28990 12.23222 10886 ft 331 kts 113°
2026-05-05 10:26 52.28171 12.26731 10523 ft 329 kts 113°
2026-05-05 10:26 52.27367 12.30177 10364 ft 320 kts 113°
2026-05-05 10:26 52.26584 12.33526 10219 ft 311 kts 113°
2026-05-05 10:27 52.25819 12.36790 10081 ft 303 kts 113°
2026-05-05 10:27 52.25076 12.39960 9952 ft 295 kts 113°
2026-05-05 10:27 52.24350 12.43049 9764 ft 290 kts 114°
2026-05-05 10:27 52.23630 12.46111 9463 ft 288 kts 114°
2026-05-05 10:28 52.22910 12.49160 9172 ft 287 kts 114°
2026-05-05 10:28 52.22195 12.52186 8882 ft 285 kts 114°
2026-05-05 10:28 52.21483 12.55194 8605 ft 283 kts 114°
2026-05-05 10:28 52.20786 12.58141 8337 ft 281 kts 114°
2026-05-05 10:29 52.20083 12.61110 8060 ft 280 kts 114°
2026-05-05 10:29 52.19384 12.64058 7792 ft 278 kts 114°
2026-05-05 10:29 52.18687 12.66989 7520 ft 277 kts 114°
2026-05-05 10:29 52.17992 12.69908 7260 ft 276 kts 114°
2026-05-05 10:30 52.17341 12.72850 6972 ft 276 kts 104°
2026-05-05 10:30 52.17400 12.75890 6757 ft 275 kts 76°
2026-05-05 10:30 52.18021 12.78780 6515 ft 273 kts 68°
2026-05-05 10:30 52.18745 12.81634 6254 ft 272 kts 68°
2026-05-05 10:31 52.19472 12.84480 5980 ft 271 kts 68°
2026-05-05 10:31 52.20191 12.87323 5696 ft 271 kts 68°
2026-05-05 10:31 52.20897 12.90177 5422 ft 270 kts 68°
2026-05-05 10:31 52.21583 12.92978 5235 ft 261 kts 69°
2026-05-05 10:32 52.22243 12.95684 5039 ft 252 kts 69°
2026-05-05 10:32 52.22874 12.98276 4950 ft 239 kts 69°
2026-05-05 10:32 52.23467 13.00716 4884 ft 225 kts 69°
2026-05-05 10:32 52.24035 13.03058 4778 ft 218 kts 69°
2026-05-05 10:33 52.24570 13.05267 4664 ft 205 kts 69°
2026-05-05 10:33 52.25093 13.07426 4623 ft 202 kts 69°
2026-05-05 10:33 52.25632 13.09540 4417 ft 205 kts 65°
2026-05-05 10:33 52.26218 13.11641 4215 ft 201 kts 67°
2026-05-05 10:34 52.26752 13.13731 4016 ft 197 kts 69°
2026-05-05 10:34 52.27250 13.15803 3830 ft 195 kts 69°
2026-05-05 10:34 52.27738 13.17874 3636 ft 195 kts 69°
2026-05-05 10:34 52.28217 13.19922 3580 ft 195 kts 69°
2026-05-05 10:35 52.28708 13.22024 3342 ft 197 kts 69°
2026-05-05 10:35 52.29191 13.24088 3066 ft 191 kts 69°
2026-05-05 10:35 52.29654 13.26064 2812 ft 182 kts 69°
2026-05-05 10:35 52.30102 13.27975 2584 ft 179 kts 69°
2026-05-05 10:36 52.30538 13.29835 2396 ft 168 kts 69°
2026-05-05 10:36 52.30809 13.30990 2233 ft 158 kts 69°
2026-05-05 10:36 52.31190 13.32609 2001 ft 148 kts 69°
2026-05-05 10:36 52.31672 13.34665 1763 ft 146 kts 69°
2026-05-05 10:37 52.32047 13.36265 1599 ft 153 kts 69°
2026-05-05 10:37 52.32421 13.37849 1383 ft 146 kts 69°
2026-05-05 10:37 52.32667 13.38884 1227 ft 144 kts 69°
2026-05-05 10:37 52.33022 13.40392 1019 ft 142 kts 69°
2026-05-05 10:38 52.33376 13.41888 828 ft 140 kts 69°
2026-05-05 10:38 52.33732 13.43381 648 ft 141 kts 69°
2026-05-05 10:38 52.34084 13.44884 469 ft 142 kts 69°
2026-05-05 10:38 52.34434 13.46393 280 ft 141 kts 68°
2026-05-05 10:39 52.34786 13.47855 165 ft 129 kts 69°
2026-05-05 10:39 52.35100 13.49189 245 ft 139 kts 68°
2026-05-05 10:39 52.35482 13.50764 693 ft 166 kts 68°
2026-05-05 10:39 52.35964 13.52746 1190 ft 197 kts 69°
2026-05-05 10:40 52.36450 13.54834 1898 ft 195 kts 70°
2026-05-05 10:40 52.36900 13.56925 2570 ft 195 kts 71°
2026-05-05 10:40 52.37321 13.58996 2968 ft 196 kts 78°
2026-05-05 10:40 52.37197 13.61180 3000 ft 196 kts 117°
2026-05-05 10:41 52.36280 13.62782 3017 ft 195 kts 150°
2026-05-05 10:41 52.35061 13.63824 2996 ft 198 kts 163°
2026-05-05 10:41 52.33727 13.64335 3009 ft 193 kts 170°
2026-05-05 10:41 52.32421 13.64349 3006 ft 189 kts 191°
2026-05-05 10:42 52.29790 13.63539 3003 ft 195 kts 192°
2026-05-05 10:42 52.28458 13.63123 3000 ft 197 kts 192°
2026-05-05 10:42 52.27013 13.62667 3019 ft 224 kts 192°
2026-05-05 10:43 52.25466 13.62171 2996 ft 226 kts 192°
2026-05-05 10:43 52.23918 13.61673 2995 ft 228 kts 192°
2026-05-05 10:43 52.22354 13.61174 3005 ft 230 kts 192°
2026-05-05 10:43 52.20775 13.60675 3000 ft 232 kts 192°
2026-05-05 10:44 52.19311 13.59653 2992 ft 231 kts 220°
2026-05-05 10:44 52.18413 13.57533 2996 ft 231 kts 252°
2026-05-05 10:44 52.18051 13.54999 3002 ft 231 kts 253°
2026-05-05 10:44 52.17651 13.52459 2992 ft 232 kts 261°
2026-05-05 10:45 52.17425 13.49765 3011 ft 245 kts 262°
2026-05-05 10:45 52.17218 13.47003 3003 ft 246 kts 263°
2026-05-05 10:45 52.17013 13.44216 3002 ft 249 kts 263°
2026-05-05 10:45 52.16812 13.41453 2996 ft 249 kts 263°
2026-05-05 10:46 52.16609 13.38643 2994 ft 249 kts 263°
2026-05-05 10:46 52.16407 13.35857 2992 ft 248 kts 263°
2026-05-05 10:46 52.16204 13.33072 3000 ft 247 kts 263°
2026-05-05 10:46 52.16001 13.30290 2999 ft 247 kts 263°
2026-05-05 10:47 52.15798 13.27510 2995 ft 245 kts 263°
2026-05-05 10:47 52.15604 13.24838 2970 ft 229 kts 263°
2026-05-05 10:47 52.15435 13.22360 2981 ft 212 kts 266°
2026-05-05 10:47 52.15760 13.20099 2993 ft 206 kts 302°
2026-05-05 10:48 52.16811 13.18626 2987 ft 198 kts 335°
2026-05-05 10:48 52.18056 13.17827 2983 ft 187 kts 338°
2026-05-05 10:48 52.19247 13.17083 3002 ft 183 kts 338°
2026-05-05 10:48 52.20435 13.16346 2984 ft 180 kts 338°
2026-05-05 10:49 52.21571 13.15653 3004 ft 171 kts 338°
2026-05-05 10:49 52.22677 13.14981 2975 ft 168 kts 338°
2026-05-05 10:49 52.23777 13.14315 2995 ft 169 kts 338°
2026-05-05 10:49 52.24877 13.13643 3024 ft 166 kts 338°
2026-05-05 10:50 52.26012 13.13414 2975 ft 167 kts 18°
2026-05-05 10:50 52.26836 13.14707 3024 ft 174 kts 67°
2026-05-05 10:50 52.27282 13.16555 2995 ft 175 kts 68°
2026-05-05 10:50 52.27771 13.18374 2990 ft 175 kts 66°
2026-05-05 10:51 52.28252 13.20196 2999 ft 175 kts 68°
2026-05-05 10:51 52.28704 13.22042 2990 ft 175 kts 69°
2026-05-05 10:51 52.29146 13.23902 2997 ft 175 kts 69°
2026-05-05 10:51 52.29575 13.25734 2949 ft 178 kts 69°
2026-05-05 10:52 52.30030 13.27645 2833 ft 182 kts 69°
2026-05-05 10:52 52.30484 13.29561 2569 ft 174 kts 69°
2026-05-05 10:52 52.30910 13.31396 2182 ft 172 kts 69°
2026-05-05 10:52 52.31322 13.33144 1899 ft 160 kts 69°
2026-05-05 10:53 52.31714 13.34814 1693 ft 154 kts 69°
2026-05-05 10:53 52.32075 13.36361 1567 ft 142 kts 69°
2026-05-05 10:53 52.32435 13.37922 1318 ft 149 kts 69°
2026-05-05 10:53 52.32807 13.39488 1119 ft 147 kts 68°
2026-05-05 10:54 52.33181 13.41052 936 ft 146 kts 69°
2026-05-05 10:54 52.33548 13.42600 725 ft 145 kts 69°
2026-05-05 10:54 52.33906 13.44120 563 ft 144 kts 69°
2026-05-05 10:54 52.34265 13.45645 369 ft 144 kts 69°
2026-05-05 10:55 52.34623 13.47161 177 ft 140 kts 69°
2026-05-05 10:55 52.34945 13.48529 153 ft 113 kts 69°
2026-05-05 10:55 52.35174 13.49501 153 ft 70 kts 68°
2026-05-05 10:55 52.35298 13.50012 153 ft 29 kts 69°
2026-05-05 10:56 52.35369 13.50313 153 ft 28 kts 66°
2026-05-05 10:56 52.35479 13.50555 153 ft 26 kts 40°
2026-05-05 10:56 52.35594 13.50703 153 ft 17 kts 40°
2026-05-05 10:56 52.35615 13.50732 153 ft 0 kts 38°
2026-05-05 10:58 52.35627 13.50737 153 ft 6 kts 14°
2026-05-05 10:58 52.35684 13.50722 153 ft 10 kts 338°
2026-05-05 10:58 52.35748 13.50683 153 ft 10 kts 340°
2026-05-05 10:59 52.35810 13.50643 153 ft 9 kts 338°
2026-05-05 10:59 52.35871 13.50603 153 ft 9 kts 338°
2026-05-05 10:59 52.35930 13.50566 153 ft 9 kts 340°
2026-05-05 10:59 52.35987 13.50535 153 ft 7 kts 341°
2026-05-05 11:00 52.36006 13.50497 153 ft 0 kts 270°
2026-05-05 11:00 52.36001 13.50480 153 ft 4 kts 246°
2026-05-05 11:00 52.35988 13.50431 153 ft 5 kts 248°
2026-05-05 11:00 52.35976 13.50382 153 ft 3 kts 249°
2026-05-05 11:01 52.35976 13.50381 153 ft 0 kts 249°